www.pogodaiklimat.ru

Погода и климат >> Архив погоды >> Канада >> Dubawnt Lake


ПОГОДА в Dubawnt Lake

  • Прогноз погоды в Dubawnt Lake
  • Монитор погоды в Dubawnt Lake
  • Климат города

АРХИВ ПОГОДЫ в Dubawnt Lake

Время (UTC), дата Ветер
(напр.,м/с)
 
Видим.   Явления Облачность Т
(С)
Тd
(С)
f
(%)
Тe
(С)
Тes
(С)
Комфортность P
(гПа)
Po
(гПа)
Тmin
(С)
Tmax
(С)
R
(мм)
S
(см)
00 22.03 Ю 4 16 км ясно -6.0 -19.3 34 -12 -12 1030.0 963.4 -35.7 -5.1
03 22.03 Ю 3 16 км ясно -9.6 -18.7 47 -15 -15 1027.5 961.8
06 22.03 Ю 4 16 км ясно -12.7 -20.2 53 -20 -20 1025.0 960.0 -35.7 -5.1 18
09 22.03 В 2 16 км ясно -18.4 -22.4 71 -23 -23 1023.2 958.2
12 22.03 В 2 16 км ясно -21.0 -23.9 77 -27 -27 1020.8 955.8 -22.2 -5.1
15 22.03 В 3 16 км 10/10 1500 м
[]
-13.0 -18.5 63 -19 -19 1018.9 954.3
18 22.03 ЮВ 4 4000 м слаб. снег 10/10 600 м
[]
-8.2 -12.5 71 -14 -14 1016.2 951.9 -22.2 -7.7
21 22.03 В 5 16 км 10/10 1000 м
[]
-5.5 -9.1 76 -12 -12 1013.1 948.8
00 23.03 ЮВ 5 9000 м слаб. снег 10/10 300 м
[]
-6.5 -8.7 84 -14 -14 1011.5 947.1 -22.2 -5.3
03 23.03 ЮВ 3 2400 м слаб. снег 10/10 600 м
[]
-7.7 -9.8 85 -14 -14 1010.2 946.3
06 23.03 СВ 3 2400 м слаб. снег 10/10 600 м
[]
-8.1 -9.0 93 -13 -13 1008.2 944.7 -22.2 -5.3
09 23.03 С 2 1600 м слаб. снег 10/10 600 м
[]
-8.8 -9.7 93 -13 -13 1008.1 944.7
12 23.03 С 2 2000 м слаб. снег 10/10 600 м
[]
-8.4 -9.3 93 -13 -13 1010.0 946.5 -8.8 -5.3
15 23.03 С 3 16 км слаб. снег 10/10 1500 м
[]
-7.7 -9.4 88 -13 -13 1012.3 948.6
18 23.03 С 4 16 км слаб. снег 10/10 300 м
[]
-5.6 -8.3 81 -12 -12 1014.6 950.9 -8.8 -5.6
21 23.03 СВ 4 16 км 9/9 300 м
[]
-3.9 -8.3 71 -10 -9 1016.8 953.0
00 24.03 В 5 16 км 9/9 600 м
[]
-4.2 -9.8 65 -11 -11 1018.8 954.9 -8.8 -3.4
03 24.03 В 5 16 км ясно -11.7 -15.9 71 -19 -19 1022.7 958.1
06 24.03 В 3 16 км 10/10 600 м
[]
-13.9 -17.3 75 -20 -20 1024.6 959.9 -15.2 -3.4
09 24.03 ЮВ 4 16 км слаб. снег 10/10 600 м
[]
-15.5 -19.0 74 -23 -23 1024.9 960.1
12 24.03 В 3 2800 м слаб. снег 10/10 600 м
[]
-15.8 -17.9 84 -23 -23 1024.7 959.9 -15.8 -3.4
15 24.03 ЮВ 4 16 км слаб. снег 9/9 600 м
[]
-14.0 -16.5 81 -21 -21 1024.4 959.3
18 24.03 ЮВ 5 16 км слаб. снег 10/10 300 м
[]
-9.8 -12.4 81 -17 -17 1023.6 958.6 -15.9 -9.7
21 24.03 Ю 5 16 км 10/10 200 м
[]
-6.5 -8.8 84 -14 -14 1022.0 957.3
00 25.03 Ю 4 16 км 10/10 300 м
[]
-3.3 -6.1 81 -9 -9 1020.9 956.4 -15.9 -3.3
03 25.03 ЮВ 4 16 км 9/0
[]
-5.5 -7.0 89 -12 -12 1019.9 955.5
06 25.03 ЮВ 3 16 км 10/0
[]
-5.7 -7.2 89 -11 -11 1019.1 955.0 -15.9 -3.2
09 25.03 В 3 16 км ясно -7.9 -8.6 95 -13 -13 1017.7 953.7
12 25.03 В 4 16 км ясно -9.6 -10.3 95 -16 -16 1016.1 952.3 -10.1 -3.2
15 25.03 В 5 16 км ясно -7.4 -8.6 91 -15 -14 1014.6 950.9
18 25.03 В 6 16 км 3/3 300 м
[]
-2.7 -7.5 70 -10 -8 1013.3 950.0 -10.1 -2.7
21 25.03 В 5 16 км ясно -2.0 -7.1 68 -8 -6 1012.1 948.8
00 26.03 В 4 16 км ясно -2.3 -8.9 61 -8 -8 1012.9 949.4 -10.1 -1.7
03 26.03 СВ 1 16 км ясно -11.7 -14.0 83 -14 -14 1014.9 950.8
06 26.03 З 1 16 км 10/0
[]
-16.9 -18.7 86 -17 -17 1015.5 951.3 -17.0 -1.7 18
09 26.03 ЮЗ 1 16 км 10/0
[]
-16.2 -18.2 85 -19 -19 1016.5 952.4
12 26.03 ЮЗ 1 16 км 5/5 <50 м
[]
-21.7 -23.6 85 -25 -25 1017.8 953.2 -22.3 -1.7
15 26.03 СВ 2 16 км 3/3 50 м
[]
-15.9 -17.0 91 -20 -19 1019.0 954.1
18 26.03 В 3 16 км ясно -3.5 -12.4 50 -8 -3 1018.8 954.4 -23.6 -3.5
21 26.03 СВ 4 16 км ясно -1.6 -11.7 46 -7 -4 1018.3 954.1
00 27.03 В 5 16 км ясно -1.9 -10.8 51 -8 -7 1019.2 954.5 -23.6 -1.1
03 27.03 В 3 16 км ясно -9.1 -15.1 62 -15 -15 1019.8 955.0
06 27.03 ЮВ 3 16 км 3/0
[]
-9.3 -15.1 63 -14 -14 1019.4 955.4 -23.6 -1.1
09 27.03 ЮВ 2 16 км 10/10 1500 м
[]
-7.4 -10.9 76 -12 -12 1019.9 956.1
12 27.03 ЮВ 3 16 км 10/10 1000 м
[]
-5.6 -9.0 77 -11 -11 1020.3 956.6 -11.4 -1.1
15 27.03 Ю 5 16 км 10/10 1000 м
[]
-3.5 -7.3 75 -10 -10 1021.1 957.0
18 27.03 ЮВ 5 16 км 10/10 1000 м
[]
+0.1 -5.9 64 -5 -5 1022.0 958.1 -11.4 +0.1
21 27.03 Ю 5 16 км 3/3 1500 м
[]
+3.7 -5.3 52 -1 +1 1021.2 957.7
00 28.03 ЮВ 5 16 км ясно +3.2 -5.5 53 -1 -1 1022.0 958.5 -11.0 +3.8
03 28.03 ЮВ 3 16 км ясно -0.8 -6.6 65 -5 -5 1022.9 959.2
06 28.03 Ю 5 16 км ясно -1.7 -7.4 65 -8 -8 1023.2 959.7 -11.0 +3.8 16
09 28.03 Ю 4 16 км 9/0
[]
-2.8 -7.0 73 -9 -9 1023.2 959.8
12 28.03 ЮВ 3 16 км 5/0
[]
-5.5 -8.4 80 -10 -10 1023.6 960.0 -5.5 +3.8
15 28.03 ЮВ 5 16 км 9/0
[]
-3.2 -8.4 67 -9 -9 1023.2 959.5
18 28.03 ЮВ 7 16 км ясно +0.7 -6.2 60 -6 -4 1021.8 958.4 -6.3 +0.7
21 28.03 ЮВ 6 16 км 9/9 1500 м
[]
+3.1 -7.2 47 -2 -2 1020.1 956.9

 

Местоположение метеостанции Dubawnt Lake (Канада): широта 63.23 долгота -101.70 высота над уровнем моря 237 м.

В архиве по умолчанию представлена погода в Dubawnt Lake за последнюю неделю. Архивные данные за месяц целиком и за предыдущие месяцы, начиная с января 2011 года, Вы можете получить, выбрав интересующий диапазон дат из раскрывающегося списка и нажав кнопку "Ввод!".

Внимание! Время в таблицах - всемирное. Для получения местного времени необходимо прибавить поправку, которая в Dubawnt Lake равна -6 ч.

Смотрите также архив погоды в соседних городах и на ближайших метеорологических станциях:

Погода в Hanbury River ARS (Канада) (176 км)
Погода в Robertson Lake (Канада) (211 км)
Погода в Baker Lake Airport (Канада) (302 км)
Погода в Baker Lake Climate (Канада) (305 км)
Погода в Fort Reliance (aut) (Канада) (379 км)
Погода в Porter Lake (Канада) (387 км)
Погода в Back River MAPS (Канада) (402 км)
Погода в Lustel Ke A (Канада) (461 км)
Погода в Arviat Climate (Канада) (462 км)
Погода в Arviat (Канада) (462 км)

Пояснения к столбцам:

Ветер - указаны скорость ветра в м/с - средняя за 10 мин, порывы в срок и между сроками (в фигурных скобках) и направление, откуда дует ветер: С - северный, СВ - северо-восточный, В - восточный, ЮВ - юго-восточный, Ю - южный, ЮЗ - юго-западный, З - западный, СЗ - северо-западный.
Видимость - горизонтальная дальность видимости в метрах или километрах. При видимости от 1 до 10 км при отсутствии осадков обычно наблюдается дымка, при ухудшении видимости до 1 км и менее - туман. В сухую погоду видимость может ухудшаться дымом, пылью или мглою.
Явления - указаны атмосферные явления, наблюдавшиеся в срок или в последний час перед сроком; фигурными скобками обозначены явления, наблюдавшиеся между сроками (за 1-3 часа до срока); квадратными скобками обозначены град или гололедные отложения с указанием их диаметра в мм.
Облачность - указаны через наклонную черту общая и нижняя облачность в баллах и высота нижней границы облаков в метрах; квадратными скобками обозначены формы облаков: Ci - перистые, Cs - перисто-слоистые, Cc - перисто-кучевые, Ac - высококучевые, As - высокослоистые, Sc - слоисто-кучевые, Ns - слоисто-дождевые, Cu - кучевые, Cb - кучево-дождевые. Подробнее классификацию облаков см. в Атласе облаков (PDF).
T - Температура воздуха - температура, измеренная на высоте 2 м над землей.
Td - Температура точки росы - температура, при понижении до которой содержащийся в воздухе водяной пар достигнет насыщения.
f - Относительная влажность воздуха - влажноcть воздуха, измеренная на высоте 2 м над землей.
Te - Эффективная температура - температура, которую ощущает одетый по сезону человек в тени. Характеристика душности погоды. При расчете учитывается влияние влажности воздуха и скорости ветра на теплоощущения человека.
Tes - Эффективная температура на солнце - температура, которую ощущает человек, с поправкой на солнечный нагрев. Характеристика знойности погоды. Зависит от высоты солнца над горизонтом, облачности и скорости ветра. Ночью, в пасмурную погоду, а также при ветре 12 м/с и более поправка равна нулю.
P - Атмосферное давление - приведенное к уровню моря атмосферное давление.
Po - Атмосферное давление - измеренное на уровне метеостанции атмосферное давление.
Tmin - Минимальная температура - минимум температуры воздуха на высоте 2 м над землей.
Tmax - Максимальная температура - максимум температуры воздуха на высоте 2 м над землей.
R - Количество осадков - Количество выпавших осадков, мм. При наведении курсора мыши на число - период времени, за который выпало указанное количество осадков.
S - Снежный покров - Высота снежного покрова, см. При наведении курсора мыши на число - состояние снежного покрова и степень покрытия местности в баллах.